• In Hungary
  • List of Countries
  • For 7 days
  • Water Temperature
  • Satellite Maps
  • Weather Map
  • News
  • Weather Widgets
  • user-avatar
    Login

    Hourly Weather Inverness

    Today, 23 November, Thursday

    Time Temperature Precipitation Wind Pressure Humidity
    00:00 +4°C° 0.4 mm 1 mps 730 mmHg 89%
    01:00 +4°C° 0.5 mm 1 mps 730 mmHg 89%
    02:00 +4°C° 0.5 mm 1 mps 729 mmHg 89%
    03:00 +4°C° 0.5 mm 1 mps 729 mmHg 90%
    04:00 +3°C° 0.9 mm 2 mps 729 mmHg 90%
    05:00 +1°C° 0.9 mm 3 mps 729 mmHg 90%
    06:00 0°C° 0.9 mm 4 mps 729 mmHg 91%
    07:00 0°C° 1.1 mm 4 mps 730 mmHg 91%
    08:00 0°C° 1.1 mm 4 mps 731 mmHg 91%
    09:00 0°C° 1.1 mm 4 mps 731 mmHg 91%
    10:00 0°C° 0.3 mm 4 mps 732 mmHg 89%
    11:00 0°C° 0.3 mm 4 mps 733 mmHg 87%
    12:00 +1°C° 0.3 mm 4 mps 735 mmHg 86%
    13:00 0°C° 0 mm 4 mps 736 mmHg 84%
    14:00 0°C° 0 mm 5 mps 737 mmHg 83%
    15:00 0°C° 0 mm 5 mps 737 mmHg 82%
    16:00 0°C° 0 mm 5 mps 738 mmHg 82%
    17:00 -1°C° 0 mm 5 mps 739 mmHg 82%
    18:00 -1°C° 0 mm 5 mps 740 mmHg 83%
    19:00 -2°C° 0 mm 5 mps 741 mmHg 83%
    20:00 -2°C° 0 mm 5 mps 742 mmHg 83%
    21:00 -2°C° 0 mm 5 mps 743 mmHg 83%
    22:00 -2°C° 0 mm 5 mps 743 mmHg 83%
    23:00 -2°C° 0 mm 5 mps 744 mmHg 83%

    Tomorrow, 24 November, Friday

    Time Temperature Precipitation Wind Pressure Humidity
    00:00 -2°C° 0 mm 5 mps 745 mmHg 83%
    01:00 -2°C° 0 mm 5 mps 745 mmHg 83%
    02:00 -2°C° 0 mm 5 mps 745 mmHg 83%
    03:00 -2°C° 0 mm 5 mps 746 mmHg 82%
    04:00 -2°C° 0 mm 5 mps 746 mmHg 83%
    05:00 -2°C° 0 mm 5 mps 746 mmHg 83%
    06:00 -2°C° 0 mm 5 mps 746 mmHg 83%
    07:00 -2°C° 0 mm 5 mps 747 mmHg 83%
    08:00 -2°C° 0 mm 5 mps 747 mmHg 83%
    09:00 -2°C° 0 mm 5 mps 747 mmHg 83%
    10:00 -2°C° 0 mm 5 mps 747 mmHg 81%
    11:00 -1°C° 0 mm 5 mps 747 mmHg 78%
    12:00 0°C° 0 mm 5 mps 747 mmHg 76%
    13:00 0°C° 0 mm 5 mps 747 mmHg 77%
    14:00 0°C° 0 mm 5 mps 747 mmHg 77%
    15:00 -1°C° 0 mm 5 mps 747 mmHg 78%
    16:00 -1°C° 0 mm 5 mps 747 mmHg 79%
    17:00 -1°C° 0 mm 5 mps 747 mmHg 80%
    18:00 -2°C° 0 mm 5 mps 748 mmHg 82%
    19:00 -2°C° 0 mm 5 mps 748 mmHg 82%
    20:00 -2°C° 0 mm 5 mps 748 mmHg 83%
    21:00 -2°C° 0 mm 5 mps 748 mmHg 83%
    22:00 -2°C° 0 mm 4 mps 748 mmHg 83%
    23:00 -2°C° 0 mm 4 mps 748 mmHg 83%

    Day after tomorrow, 25 November, Saturday

    Time Temperature Precipitation Wind Pressure Humidity
    00:00 -2°C° 0 mm 4 mps 748 mmHg 83%
    01:00 -2°C° 0 mm 4 mps 748 mmHg 83%
    02:00 -2°C° 0 mm 4 mps 748 mmHg 83%
    03:00 -1°C° 0 mm 5 mps 748 mmHg 83%
    04:00 -1°C° 0 mm 5 mps 748 mmHg 82%
    05:00 -1°C° 0 mm 5 mps 748 mmHg 82%
    06:00 -2°C° 0 mm 6 mps 749 mmHg 82%
    07:00 -2°C° 0 mm 6 mps 748 mmHg 82%
    08:00 -2°C° 0 mm 6 mps 748 mmHg 82%
    09:00 -2°C° 0 mm 6 mps 748 mmHg 82%
    10:00 -1°C° 0.1 mm 7 mps 748 mmHg 82%
    11:00 0°C° 0.1 mm 7 mps 748 mmHg 82%
    12:00 0°C° 0.1 mm 8 mps 748 mmHg 83%
    13:00 0°C° 0.4 mm 8 mps 748 mmHg 83%
    14:00 +1°C° 0.4 mm 8 mps 748 mmHg 83%
    15:00 +1°C° 0.4 mm 8 mps 748 mmHg 84%
    16:00 +1°C° 0.7 mm 8 mps 748 mmHg 83%
    17:00 +1°C° 0.7 mm 8 mps 748 mmHg 82%
    18:00 +1°C° 0.7 mm 8 mps 748 mmHg 81%
    19:00 +1°C° 0.3 mm 8 mps 749 mmHg 83%
    20:00 +1°C° 0.3 mm 8 mps 749 mmHg 84%
    21:00 +1°C° 0.3 mm 9 mps 750 mmHg 85%
    22:00 +1°C° 0.4 mm 9 mps 750 mmHg 85%
    23:00 +1°C° 0.4 mm 8 mps 751 mmHg 85%

    26 November, Sunday

    Time Temperature Precipitation Wind Pressure Humidity
    00:00 +1°C° 0.4 mm 8 mps 751 mmHg 85%
    01:00 +1°C° 0.1 mm 8 mps 752 mmHg 85%
    02:00 +1°C° 0.1 mm 8 mps 752 mmHg 85%
    03:00 +1°C° 0.1 mm 8 mps 753 mmHg 85%
    04:00 +2°C° 0.2 mm 7 mps 753 mmHg 85%
    05:00 +2°C° 0.2 mm 7 mps 754 mmHg 85%
    06:00 +2°C° 0.2 mm 7 mps 754 mmHg 85%
    07:00 +2°C° 0.1 mm 7 mps 755 mmHg 85%
    08:00 +1°C° 0.1 mm 6 mps 756 mmHg 85%
    09:00 +1°C° 0.1 mm 6 mps 756 mmHg 85%
    10:00 +1°C° 0.1 mm 6 mps 756 mmHg 85%
    11:00 +2°C° 0.1 mm 6 mps 757 mmHg 84%
    12:00 +2°C° 0.1 mm 6 mps 757 mmHg 83%
    13:00 +1°C° 0.1 mm 6 mps 757 mmHg 83%
    14:00 +1°C° 0.1 mm 5 mps 757 mmHg 82%
    15:00 +1°C° 0.1 mm 5 mps 758 mmHg 82%
    16:00 0°C° 0 mm 4 mps 758 mmHg 83%
    17:00 -1°C° 0 mm 4 mps 758 mmHg 84%
    18:00 0°C° 0 mm 3 mps 758 mmHg 85%
    19:00 0°C° 0 mm 3 mps 757 mmHg 85%
    20:00 +1°C° 0 mm 2 mps 757 mmHg 86%
    21:00 +2°C° 0 mm 2 mps 757 mmHg 87%
    22:00 +1°C° 0.1 mm 2 mps 755 mmHg 89%
    23:00 +1°C° 0.1 mm 2 mps 754 mmHg 90%

    27 November, Monday

    Time Temperature Precipitation Wind Pressure Humidity
    00:00 +1°C° 0.1 mm 2 mps 753 mmHg 91%
    01:00 +2°C° 0.7 mm 2 mps 752 mmHg 92%
    02:00 +2°C° 0.7 mm 2 mps 751 mmHg 92%
    03:00 +2°C° 0.7 mm 2 mps 750 mmHg 93%
    04:00 +2°C° 1 mm 2 mps 750 mmHg 94%
    05:00 +3°C° 1 mm 2 mps 750 mmHg 94%
    06:00 +3°C° 1 mm 2 mps 749 mmHg 95%
    07:00 +3°C° 0.3 mm 2 mps 749 mmHg 95%
    08:00 +3°C° 0.3 mm 2 mps 749 mmHg 96%
    09:00 +3°C° 0.3 mm 2 mps 750 mmHg 96%
    10:00 +3°C° 0.6 mm 2 mps 750 mmHg 96%
    11:00 +3°C° 0.6 mm 2 mps 750 mmHg 96%
    12:00 +2°C° 0.6 mm 3 mps 751 mmHg 96%
    13:00 +3°C° 0.2 mm 2 mps 751 mmHg 96%
    14:00 +3°C° 0.2 mm 2 mps 751 mmHg 95%
    15:00 +3°C° 0.2 mm 2 mps 751 mmHg 95%
    16:00 +2°C° 0 mm 2 mps 751 mmHg 94%
    17:00 +3°C° 0 mm 1 mps 751 mmHg 93%
    18:00 +3°C° 0 mm 1 mps 751 mmHg 92%
    19:00 +2°C° 0 mm 1 mps 751 mmHg 91%
    20:00 +2°C° 0 mm 1 mps 751 mmHg 91%
    21:00 +2°C° 0 mm 1 mps 751 mmHg 90%
    22:00 +2°C° 0 mm 1 mps 751 mmHg 90%
    23:00 +2°C° 0 mm 1 mps 751 mmHg 90%

    28 November, Tuesday

    Time Temperature Precipitation Wind Pressure Humidity
    00:00 +1°C° 0 mm 1 mps 751 mmHg 90%
    01:00 +2°C° 0 mm 1 mps 751 mmHg 91%
    02:00 +2°C° 0 mm 1 mps 751 mmHg 92%
    03:00 +1°C° 0 mm 2 mps 751 mmHg 93%
    04:00 +1°C° 0.1 mm 2 mps 751 mmHg 93%
    05:00 +1°C° 0.1 mm 2 mps 752 mmHg 93%
    06:00 +1°C° 0.1 mm 2 mps 752 mmHg 94%
    07:00 +1°C° 0.2 mm 2 mps 752 mmHg 93%
    08:00 +1°C° 0.2 mm 3 mps 753 mmHg 93%
    09:00 +1°C° 0.2 mm 3 mps 753 mmHg 93%
    10:00 +1°C° 0.3 mm 3 mps 753 mmHg 91%
    11:00 0°C° 0.3 mm 4 mps 754 mmHg 90%
    12:00 +1°C° 0.3 mm 4 mps 754 mmHg 89%
    13:00 0°C° 0.1 mm 4 mps 753 mmHg 88%
    14:00 0°C° 0.1 mm 4 mps 753 mmHg 87%
    15:00 0°C° 0.1 mm 3 mps 753 mmHg 86%
    16:00 -1°C° 0 mm 3 mps 753 mmHg 87%
    17:00 -2°C° 0 mm 2 mps 752 mmHg 88%
    18:00 -2°C° 0 mm 2 mps 752 mmHg 89%
    19:00 -3°C° 0 mm 2 mps 753 mmHg 88%
    20:00 -3°C° 0 mm 2 mps 753 mmHg 88%
    21:00 -3°C° 0 mm 2 mps 753 mmHg 87%
    22:00 -3°C° 0 mm 2 mps 754 mmHg 88%
    23:00 -2°C° 0 mm 3 mps 754 mmHg 88%
    Show more